カタログに戻る

FENGYUN 2G DEB

運用中MEO
NORAD 43646·DEBRIS·🇨🇳 China

打ち上げ Dec 31, 2014 から Xichang Satellite Launch Center

Loading…

次のパス (今後24時間)

TLE

最新Source: Space-Track

元期: Sep 5, 2026, 02:00 UTC

1 43646U 14090D   26248.08346942  .00000056  00000-0  00000+0 0  9995
2 43646   7.7317  67.2655 0202586 291.3939  66.5931  1.00247146 42506

AllMySatでFENGYUN 2G DEBをリアルタイム追跡

Download on the App Store